TimeCST,TemperatureF,Dew PointF,Humidity,Sea Level PressureIn,VisibilityMPH,Wind Direction,Wind SpeedMPH,Gust SpeedMPH,PrecipitationIn,Events,Conditions,WindDirDegrees,DateUTC
12:15 AM,68.4,66.0,92,29.82,7.0,ESE,17.3,21.9,0.01,Rain-Thunderstorm,Light Thunderstorms and Rain,120,2013-01-09 06:15:00
12:35 AM,68.7,66.6,93,29.83,7.0,SE,11.5,-,0.01,Rain,Light Rain,140,2013-01-09 06:35:00
12:55 AM,68.5,66.6,93,29.85,7.0,South,9.2,18.4,0.01,,Overcast,170,2013-01-09 06:55:00
1:15 AM,68.9,66.6,92,29.83,10.0,SSE,8.1,18.4,N/A,,Overcast,160,2013-01-09 07:15:00
1:35 AM,68.9,66.6,92,29.85,7.0,SSE,18.4,31.1,N/A,,Mostly Cloudy,160,2013-01-09 07:35:00
1:55 AM,68.7,66.4,92,29.84,7.0,SSE,19.6,24.2,N/A,,Overcast,150,2013-01-09 07:55:00
2:15 AM,68.2,66.2,93,29.83,7.0,SE,17.3,21.9,N/A,,Overcast,140,2013-01-09 08:15:00
2:35 AM,68.2,66.2,93,29.82,7.0,SSE,13.8,19.6,N/A,,Overcast,150,2013-01-09 08:35:00
2:55 AM,68.7,66.6,93,29.83,7.0,SE,19.6,25.3,N/A,,Overcast,140,2013-01-09 08:55:00
3:15 AM,68.9,66.7,93,29.84,7.0,SE,20.7,29.9,N/A,,Overcast,140,2013-01-09 09:15:00
3:35 AM,69.3,66.9,92,29.82,7.0,SE,20.7,29.9,N/A,,Overcast,140,2013-01-09 09:35:00
3:55 AM,69.6,67.1,92,29.81,7.0,SE,21.9,29.9,N/A,,Overcast,130,2013-01-09 09:55:00
4:15 AM,69.8,67.3,92,29.81,7.0,SE,17.3,24.2,N/A,,Mostly Cloudy,140,2013-01-09 10:15:00
4:35 AM,70.2,67.6,92,29.82,10.0,SE,18.4,24.2,N/A,Thunderstorm,Thunderstorm,130,2013-01-09 10:35:00
4:55 AM,70.2,67.8,92,29.81,10.0,SSE,13.8,-,N/A,Thunderstorm,Overcast,150,2013-01-09 10:55:00
5:15 AM,69.8,67.6,93,29.83,7.0,South,15.0,23.0,N/A,Rain,Rain,190,2013-01-09 11:15:00
5:35 AM,70.0,67.8,93,29.82,1.5,SSW,13.8,28.8,0.52,Rain,Light Rain,200,2013-01-09 11:35:00
6:15 AM,69.6,67.5,93,29.84,10.0,SW,11.5,-,N/A,,Overcast,220,2013-01-09 12:15:00
6:35 AM,68.7,66.7,93,29.84,7.0,SW,11.5,-,N/A,Rain,Rain,220,2013-01-09 12:35:00
6:55 AM,68.5,66.7,94,29.85,4.0,West,8.1,-,0.02,Rain-Thunderstorm,Thunderstorms and Rain,260,2013-01-09 12:55:00
7:15 AM,68.0,66.4,95,29.86,4.0,WNW,6.9,-,0.02,Rain,Light Rain,290,2013-01-09 13:15:00
7:35 AM,67.5,65.7,94,29.87,5.0,WNW,10.4,-,0.05,Rain,Light Rain,290,2013-01-09 13:35:00
7:55 AM,66.4,64.8,95,29.88,5.0,WNW,11.5,-,0.07,Rain,Rain,300,2013-01-09 13:55:00
8:15 AM,63.7,61.9,94,29.89,10.0,NW,12.7,-,N/A,Rain,Light Rain,310,2013-01-09 14:15:00
8:35 AM,61.3,59.9,95,29.92,10.0,WNW,8.1,-,N/A,,Overcast,300,2013-01-09 14:35:00
9:15 AM,61.3,59.9,95,29.95,10.0,WNW,12.7,-,0.01,Rain,Light Rain,290,2013-01-09 15:15:00
9:35 AM,61.0,59.4,94,29.95,7.0,NW,12.7,-,0.02,Rain,Light Rain,320,2013-01-09 15:35:00
9:55 AM,61.0,59.4,94,29.96,10.0,NNW,5.8,-,0.02,,Scattered Clouds,330,2013-01-09 15:55:00
10:15 AM,61.0,59.4,94,29.94,10.0,NNW,12.7,-,N/A,Rain,Light Rain,340,2013-01-09 16:15:00
10:35 AM,61.0,59.4,94,29.96,10.0,NNW,13.8,-,0.01,Rain,Light Rain,340,2013-01-09 16:35:00
10:55 AM,61.3,59.7,94,29.92,10.0,North,13.8,-,0.01,,Mostly Cloudy,10,2013-01-09 16:55:00
11:15 AM,61.7,59.9,94,29.92,10.0,NNE,12.7,-,N/A,,Overcast,20,2013-01-09 17:15:00
11:55 AM,61.7,59.5,93,29.92,7.0,NNE,8.1,-,0.02,Rain,Rain,20,2013-01-09 17:55:00
12:15 PM,61.9,60.1,94,29.85,10.0,NNE,10.4,-,N/A,,Mostly Cloudy,20,2013-01-09 18:15:00
12:35 PM,63.1,61.2,93,29.90,10.0,NNE,3.5,-,N/A,,Scattered Clouds,30,2013-01-09 18:35:00
12:55 PM,63.7,61.2,91,29.87,10.0,NNW,4.6,-,N/A,,Scattered Clouds,340,2013-01-09 18:55:00
1:15 PM,63.9,61.0,90,29.87,10.0,NNW,4.6,-,N/A,,Clear,340,2013-01-09 19:15:00
1:35 PM,64.4,61.5,90,29.90,10.0,WSW,8.1,-,N/A,,Mostly Cloudy,240,2013-01-09 19:35:00
1:55 PM,66.0,62.4,88,29.87,10.0,West,8.1,-,N/A,,Mostly Cloudy,280,2013-01-09 19:55:00
2:15 PM,66.0,62.2,88,29.90,10.0,West,11.5,-,N/A,,Overcast,260,2013-01-09 20:15:00
2:35 PM,65.7,61.9,88,29.93,10.0,WSW,6.9,-,N/A,Rain,Light Rain,240,2013-01-09 20:35:00
2:55 PM,65.3,61.7,88,29.92,10.0,WSW,5.8,-,N/A,,Overcast,250,2013-01-09 20:55:00
3:15 PM,65.3,61.5,88,29.91,10.0,WSW,3.5,-,N/A,,Mostly Cloudy,240,2013-01-09 21:15:00
3:35 PM,65.5,61.5,87,29.94,10.0,SW,4.6,-,N/A,,Overcast,220,2013-01-09 21:35:00
3:55 PM,65.8,61.7,86,29.93,10.0,WSW,10.4,-,N/A,,Mostly Cloudy,250,2013-01-09 21:55:00
4:15 PM,66.2,61.7,85,29.95,10.0,WSW,6.9,-,N/A,,Scattered Clouds,240,2013-01-09 22:15:00
4:35 PM,66.2,61.3,84,29.95,10.0,WSW,5.8,-,N/A,,Clear,240,2013-01-09 22:35:00
4:55 PM,66.0,61.2,84,29.96,10.0,SW,5.8,-,N/A,,Scattered Clouds,230,2013-01-09 22:55:00
5:15 PM,65.5,61.0,85,29.97,10.0,SW,4.6,-,N/A,,Scattered Clouds,230,2013-01-09 23:15:00
5:35 PM,65.1,61.0,86,29.96,10.0,Calm,Calm,-,N/A,,Scattered Clouds,0,2013-01-09 23:35:00
5:55 PM,64.2,61.0,89,29.97,10.0,WSW,3.5,-,N/A,,Clear,240,2013-01-09 23:55:00
6:15 PM,63.7,60.8,90,29.97,10.0,WSW,3.5,-,N/A,,Clear,250,2013-01-10 00:15:00
6:35 PM,62.8,60.3,91,29.99,10.0,WSW,3.5,-,N/A,,Clear,250,2013-01-10 00:35:00
6:55 PM,62.1,59.7,92,29.99,10.0,WSW,4.6,-,N/A,,Clear,250,2013-01-10 00:55:00
7:15 PM,61.0,59.0,93,29.99,10.0,WSW,5.8,-,N/A,,Clear,250,2013-01-10 01:15:00
7:35 PM,61.0,59.0,93,30.01,10.0,WSW,3.5,-,N/A,Thunderstorm,Clear,250,2013-01-10 01:35:00
7:55 PM,61.2,59.2,93,30.02,10.0,WSW,5.8,-,N/A,,Clear,240,2013-01-10 01:55:00
8:15 PM,60.8,58.6,93,30.03,10.0,WSW,6.9,-,N/A,,Clear,240,2013-01-10 02:15:00
8:35 PM,61.2,59.0,93,30.03,10.0,SW,3.5,-,N/A,,Clear,220,2013-01-10 02:35:00
8:55 PM,61.0,58.8,93,30.01,10.0,WNW,6.9,-,N/A,,Clear,290,2013-01-10 02:55:00
9:15 PM,60.8,58.6,93,30.02,10.0,West,5.8,-,N/A,,Clear,280,2013-01-10 03:15:00
9:35 PM,60.8,58.5,92,30.02,10.0,Calm,Calm,-,N/A,,Clear,0,2013-01-10 03:35:00
9:55 PM,60.3,57.9,92,30.04,10.0,Calm,Calm,-,N/A,,Clear,0,2013-01-10 03:55:00
10:15 PM,59.9,57.4,91,30.04,10.0,West,3.5,-,N/A,,Clear,270,2013-01-10 04:15:00
10:35 PM,59.4,56.8,91,30.03,10.0,Calm,Calm,-,N/A,,Clear,0,2013-01-10 04:35:00
10:55 PM,58.8,57.0,94,30.03,10.0,Calm,Calm,-,N/A,,Clear,0,2013-01-10 04:55:00
11:15 PM,58.6,56.8,94,30.02,7.0,SE,3.5,-,N/A,,Clear,130,2013-01-10 05:15:00
11:35 PM,57.9,56.3,94,30.03,7.0,Calm,Calm,-,N/A,,Clear,0,2013-01-10 05:35:00
11:55 PM,58.3,56.7,94,30.03,7.0,WSW,3.5,-,N/A,,Clear,250,2013-01-10 05:55:00